Delta Junction, AK

3:02 AM AKDT on September 30, 2016 (GMT -0800)
Allen Army Air Field

Weather History for PABI - April, 2014

Change the Weather History Date:

Friday, April 25, 2014

  Actual Average Record
Temperature  
Mean Temperature 40 °F -  
Max Temperature 50 °F 46 °F 64 °F (1997)
Min Temperature 30 °F 26 °F 12 °F (2002)
Degree Days  
Heating Degree Days 25    
Moisture  
Dew Point 23 °F    
Average Humidity 55    
Maximum Humidity 96    
Minimum Humidity 22    
Precipitation  
Precipitation 0.00 in - - ()
Sea Level Pressure  
Sea Level Pressure 29.58 in    
Wind  
Wind Speed 14 mph (SSE)    
Max Wind Speed 29 mph    
Max Gust Speed 43 mph    
Visibility 10 miles    
Events      
Averages and records for this station are not official NWS values.
T = Trace of Precipitation, MM = Missing Value Source: NWS Daily Summary

Daily Weather History Graph

Daily Weather History Graph

Search for Another Location

Airport or City:

Trip Planner

Search our weather history database for the weather conditions in past years. The results will help you decide how hot, cold, wet, or windy it might be!

Date:

Astronomy

Apr. 25, 2014 Rise Set
Actual Time 5:36 AM AKDT 9:47 PM AKDT
Civil Twilight 4:33 AM AKDT 10:50 PM AKDT
Nautical Twilight 2:37 AM AKDT 12:56 AM AKDT
Astronomical Twilight Sun does not set Sun does not set
Moon 4:53 AM AKDT (4/25) 5:07 PM AKDT (4/25)
Length of Visible Light 18h 16m
Length of Day
16h 11m
Waning Crescent, 14% of the Moon is Illuminated
Apr 25
Waning Crescent
Apr 28
New
May 6
First Quarter
May 14
Full
May 21
Last Quarter

Hourly Weather History & Observations

Time (AKDT) Temp. Windchill Dew Point Humidity Pressure Visibility Wind Dir Wind Speed Gust Speed Precip Events Conditions
12:53 AM 34.0 °F 28.0 °F 33.1 °F 96% 29.61 in 10.0 mi ESE 6.9 mph - N/A   Overcast
1:53 AM 34.0 °F 25.5 °F 33.1 °F 96% 29.61 in 10.0 mi ESE 11.5 mph - N/A   Overcast
2:53 AM 33.1 °F 24.9 °F 32.0 °F 96% 29.61 in 10.0 mi ESE 10.4 mph - N/A   Overcast
3:53 AM 33.1 °F 26.1 °F 30.9 °F 92% 29.62 in 10.0 mi ESE 8.1 mph - N/A   Scattered Clouds
4:53 AM 32.0 °F 26.4 °F 30.9 °F 96% 29.62 in 10.0 mi SE 5.8 mph - N/A   Clear
5:53 AM 32.0 °F 26.4 °F 30.9 °F 96% 29.62 in 10.0 mi ESE 5.8 mph - N/A   Partly Cloudy
6:53 AM 30.9 °F 25.2 °F 30.0 °F 96% 29.63 in 10.0 mi East 5.8 mph - N/A   Scattered Clouds
7:43 AM 35.1 °F 28.6 °F 33.1 °F 92% 29.57 in 10.0 mi ESE 8.1 mph - N/A   Mostly Cloudy
7:53 AM 36.0 °F 28.0 °F 33.1 °F 89% 29.62 in 10.0 mi ESE 11.5 mph - N/A   Mostly Cloudy
8:53 AM 39.0 °F 32.3 °F 32.0 °F 76% 29.62 in 10.0 mi ESE 10.4 mph - N/A   Mostly Cloudy
9:53 AM 44.1 °F 35.0 °F 18.0 °F 35% 29.60 in 10.0 mi South 24.2 mph 41.4 mph N/A   Scattered Clouds
10:53 AM 44.1 °F 34.4 °F 17.1 °F 34% 29.60 in 10.0 mi South 27.6 mph 42.6 mph N/A   Scattered Clouds
11:53 AM 46.0 °F 36.9 °F 17.1 °F 31% 29.59 in 10.0 mi South 28.8 mph 34.5 mph N/A   Scattered Clouds
12:53 PM 46.9 °F - 16.0 °F 29% 29.58 in 10.0 mi South 23.0 mph 35.7 mph N/A   Mostly Cloudy
1:53 PM 46.9 °F - 15.1 °F 28% 29.59 in 10.0 mi South 25.3 mph 35.7 mph N/A   Scattered Clouds
2:53 PM 46.9 °F - 17.1 °F 30% 29.58 in 10.0 mi South 26.5 mph 33.4 mph N/A   Mostly Cloudy
3:53 PM 48.2 °F - 14.0 °F 25% 29.54 in 10.0 mi SSW 24.2 mph 29.9 mph N/A   Mostly Cloudy
4:53 PM 48.0 °F - 15.1 °F 27% 29.57 in 10.0 mi South 26.5 mph 33.4 mph N/A   Mostly Cloudy
5:53 PM 46.9 °F - 19.0 °F 33% 29.56 in 10.0 mi South 24.2 mph 31.1 mph N/A   Mostly Cloudy
6:53 PM 46.9 °F - 19.9 °F 34% 29.57 in 10.0 mi South 25.3 mph 35.7 mph N/A   Scattered Clouds
7:53 PM 46.0 °F 38.8 °F 18.0 °F 33% 29.54 in 10.0 mi SSE 18.4 mph 26.5 mph N/A   Scattered Clouds
8:53 PM 44.1 °F 35.4 °F 18.0 °F 35% 29.54 in 10.0 mi South 21.9 mph 34.5 mph N/A   Mostly Cloudy
9:31 PM 43.0 °F 34.5 °F 19.0 °F 38% 29.51 in 10.0 mi South 19.6 mph 28.8 mph N/A   Scattered Clouds
9:53 PM 43.0 °F 34.8 °F 19.0 °F 38% 29.55 in 10.0 mi South 18.4 mph 26.5 mph N/A   Clear
10:53 PM 41.0 °F 33.5 °F 19.0 °F 41% 29.55 in 10.0 mi SSE 13.8 mph - N/A   Clear
11:53 PM 42.1 °F 35.2 °F 17.1 °F 37% 29.54 in 10.0 mi SSE 12.7 mph - N/A   Clear